GFSNW_925_temp_057.txt.gz
Temp
5 5 6 6 6 7 7 7 8 10 10 10 10 12 14 16 17 18 17 18 18 20 19 19 19 20 22 21 18 20 19 17 17 20 21 21 20 20 18 14 18 14 12 16
4 5 5 5 6 6 6 7 9 9 11 11 10 12 14 15 16 17 17 18 19 18 20 20 19 19 21 20 19 19 18 17 16 19 19 19 19 19 19 16 13 15 13 16
4 5 5 6 6 6 7 8 10 9 10 13 13 12 13 14 15 15 16 16 18 19 20 21 20 20 21 20 20 17 18 17 18 18 19 20 21 21 19 17 13 16 14 18
4 5 4 5 5 5 7 7 11 11 11 11 12 13 13 13 15 15 15 15 16 17 18 20 20 20 20 20 16 19 18 19 19 19 20 20 21 21 19 19 18 17 18 17
4 4 4 5 5 5 6 8 10 10 10 12 12 12 13 13 14 15 15 16 18 17 17 19 20 19 19 19 20 20 17 18 19 19 18 19 20 19 20 19 20 17 18 18
4 4 4 5 4 5 6 9 8 10 11 11 12 13 13 14 15 15 16 17 17 16 17 18 18 19 19 19 18 17 17 15 13 17 15 16 14 16 18 19 19 19 18 17
4 4 5 6 4 4 4 10 9 10 11 12 12 13 14 14 14 15 17 16 16 17 17 17 17 15 16 17 16 16 15 14 11 12 12 13 17 18 18 18 17 16 16 16
4 4 5 5 5 4 2 7 8 10 9 12 13 13 13 14 15 15 16 17 18 16 17 16 17 12 16 17 15 17 15 11 11 12 12 15 18 17 17 17 18 17 14 13
4 4 5 6 4 4 3 4 8 8 10 12 14 13 13 13 13 14 15 16 14 16 13 11 15 14 16 16 17 14 13 11 12 9 12 13 15 17 18 17 14 16 15 13
3 4 4 4 4 3 3 5 7 7 9 11 12 13 13 14 14 13 14 13 15 14 8 11 12 14 16 14 14 13 10 9 11 7 10 12 14 17 17 16 15 14 14 14
3 3 3 3 4 4 3 5 6 7 8 9 10 11 13 13 14 12 12 14 12 10 11 12 11 10 13 13 15 13 14 11 9 8 8 14 15 16 16 14 13 13 12 12
3 3 3 3 3 4 3 5 6 6 7 8 9 10 11 12 13 14 11 13 12 12 11 10 9 10 8 12 13 15 15 13 12 13 12 14 14 15 14 12 12 12 12 10
3 3 3 4 3 3 3 7 6 5 6 6 8 10 13 13 13 14 12 11 13 13 11 10 10 11 10 11 11 14 15 13 12 13 14 12 12 11 10 11 10 10 10 9
3 3 3 3 3 5 5 7 6 6 6 7 9 12 12 13 13 14 14 15 12 11 10 9 8 9 12 11 13 13 14 14 11 11 11 12 11 9 8 7 7 6 6 7
3 3 4 4 5 5 7 7 6 7 7 8 7 10 12 13 13 13 13 13 12 10 9 7 10 9 10 8 10 11 13 12 12 11 12 11 10 7 7 7 6 6 5 4
3 4 4 5 5 6 7 6 6 7 8 8 8 10 10 12 12 12 13 13 11 10 10 8 11 11 9 10 10 13 12 12 12 13 12 8 7 6 6 5 5 4 4 4
4 4 5 5 5 6 6 5 7 8 8 8 7 8 10 10 11 10 10 9 9 10 9 8 9 10 9 6 8 11 9 8 8 8 8 6 6 5 4 4 4 3 3 3
4 5 6 6 6 8 6 8 7 8 9 8 7 8 9 9 10 10 8 8 9 9 9 8 6 8 6 10 10 9 9 8 8 6 7 6 4 4 3 3 3 3 2 1
5 5 5 5 7 5 7 6 7 9 9 7 6 8 9 8 8 7 8 8 8 8 6 8 9 7 10 10 9 8 8 8 5 5 5 4 4 3 3 3 2 1 1 1
5 6 6 4 7 7 7 7 7 8 7 7 7 7 8 9 6 6 7 6 8 9 8 8 7 8 7 7 8 7 6 6 5 4 4 4 3 3 3 3 2 2 0 -1
6 5 5 7 8 9 7 5 6 6 6 6 6 7 9 7 8 8 5 7 6 9 9 9 8 8 7 7 7 7 6 6 6 6 5 5 4 4 3 2 0 -1 -1 -2
6 6 8 7 8 6 6 6 5 7 7 6 7 7 7 6 7 7 6 8 6 9 7 8 9 6 6 6 6 6 6 6 6 6 5 5 4 3 1 -0 -1 -2 -3 -3
5 7 6 7 4 7 7 8 7 6 5 5 5 6 5 5 5 5 5 5 6 6 8 9 7 6 6 6 6 6 6 5 5 4 3 2 1 0 -1 -2 -3 -3 -3 -3
5 6 6 6 6 5 5 6 6 4 4 4 5 5 5 4 5 4 7 6 6 3 5 7 6 6 6 5 5 4 3 2 2 1 1 -0 -1 -2 -3 -3 -3 -4 -4 -5
4 4 5 4 3 3 3 3 3 3 3 4 5 5 6 5 6 5 6 7 8 4 5 5 4 5 4 3 2 2 1 0 0 -0 -1 -2 -2 -3 -3 -4 -4 -4 -5 -5
3 3 5 4 5 4 3 3 4 3 2 3 3 5 6 6 6 7 6 5 7 6 4 3 4 4 3 2 2 1 0 -0 -1 -2 -2 -3 -3 -3 -4 -4 -4 -5 -5 -6
3 3 2 3 3 3 3 2 3 2 3 5 4 7 6 5 6 6 5 4 4 3 3 2 3 2 1 0 -0 -0 -1 -1 -2 -2 -2 -3 -4 -4 -5 -5 -6 -6 -6 -6

GFSNW_925_temp_060.txt.gz
Temp
5 5 5 6 6 6 7 7 6 9 8 10 11 12 12 15 16 17 17 17 17 18 18 17 18 19 20 19 17 19 18 16 16 19 20 19 19 18 17 14 17 14 12 15
5 5 5 5 6 6 6 7 8 8 10 10 11 13 13 13 15 15 16 16 17 18 19 19 18 18 20 17 19 18 17 16 16 17 18 18 19 18 17 15 13 15 13 16
5 5 5 5 6 6 6 6 6 8 9 12 12 13 13 12 14 15 15 15 16 18 18 18 19 18 20 18 19 16 18 16 17 17 18 18 18 18 17 17 13 15 14 17
5 5 5 5 6 6 5 6 7 10 10 9 11 13 14 12 13 14 14 14 15 17 18 18 19 19 19 19 15 17 18 18 17 18 19 19 19 20 16 17 17 16 18 15
5 5 5 5 5 6 6 5 7 9 9 11 11 12 13 13 13 13 14 14 15 15 16 18 19 19 19 19 17 17 16 17 18 18 18 18 20 19 17 18 18 16 17 16
5 5 5 5 5 5 4 4 7 8 11 11 11 12 13 13 14 14 15 15 15 15 16 17 18 18 18 18 18 16 16 14 14 17 15 17 14 16 17 18 17 17 16 16
4 4 4 5 5 5 4 5 7 8 9 11 12 12 13 13 13 14 15 15 15 16 17 17 17 15 15 15 16 15 14 13 11 11 12 13 17 17 17 16 16 16 15 16
4 4 4 4 5 5 5 6 6 8 8 11 12 12 13 14 13 13 15 15 16 16 17 15 16 12 15 15 13 15 14 11 11 12 12 15 18 16 16 16 16 15 14 12
4 4 4 4 4 5 5 4 3 6 9 10 12 12 12 13 12 12 13 14 14 15 12 12 14 14 15 15 16 14 13 11 12 9 12 13 15 16 16 17 15 14 13 12
4 4 4 5 4 4 4 4 3 5 7 10 12 12 12 13 11 10 11 13 13 13 7 9 11 13 15 14 14 13 10 9 11 7 10 12 14 17 16 16 15 13 13 13
4 4 4 4 4 4 3 4 4 5 7 9 9 11 11 12 13 10 11 13 11 9 11 10 10 9 13 13 14 13 14 12 10 8 9 15 14 16 16 14 13 12 12 11
4 4 4 4 4 3 4 4 4 4 7 8 8 9 11 14 13 13 10 12 11 11 11 9 8 10 8 12 13 14 14 14 13 14 13 14 13 15 14 12 12 12 11 9
4 4 4 4 3 3 4 5 3 5 6 7 8 9 11 12 13 15 11 10 12 12 11 9 10 11 10 11 11 14 14 13 13 14 14 13 12 11 11 12 11 10 9 8
3 3 3 3 3 3 4 5 4 6 7 7 8 10 11 12 13 13 14 13 11 9 9 8 8 10 11 9 13 12 13 13 12 12 11 11 11 10 9 7 7 7 6 6
3 3 3 4 3 3 4 5 5 6 7 8 7 8 11 12 12 11 12 12 11 10 8 7 9 9 9 8 9 7 12 13 13 15 14 14 12 7 7 7 6 6 5 4
3 3 4 4 4 4 4 4 5 6 6 7 7 7 10 11 11 10 10 10 10 10 9 7 9 10 10 9 9 12 12 12 13 15 11 7 6 5 6 5 4 4 4 4
3 3 3 3 3 4 5 5 6 6 6 6 7 7 9 10 11 10 10 9 9 10 9 7 9 9 9 5 9 11 9 9 9 7 8 7 7 6 4 4 3 3 2 2
4 4 4 4 4 5 5 6 7 6 7 7 7 8 8 9 9 10 9 9 9 8 8 7 6 8 5 11 9 8 7 7 6 5 6 6 4 3 3 3 3 2 1 1
4 4 4 5 6 5 6 6 7 8 8 5 5 8 7 7 7 7 8 8 8 7 7 8 8 7 10 10 8 7 8 8 5 4 5 5 3 3 3 2 2 1 1 1
4 5 5 4 5 6 6 7 6 7 6 7 6 7 8 8 5 7 7 6 8 9 8 8 7 8 8 7 8 8 6 5 5 4 3 3 3 2 2 2 2 1 1 -0
5 3 4 5 6 6 6 5 6 6 6 5 6 6 8 7 8 7 5 7 7 10 9 9 8 8 8 6 7 6 5 5 5 5 6 6 4 3 2 1 1 0 0 -1
5 6 7 6 7 6 5 6 5 7 8 5 6 7 7 6 6 7 6 7 6 10 7 9 9 7 6 5 5 5 5 5 5 4 4 4 3 2 1 -1 -1 -2 -2 -3
7 6 5 7 5 6 4 7 7 7 5 5 5 6 5 4 5 5 5 7 7 6 8 9 7 6 6 6 6 5 5 5 4 4 2 1 -0 -1 -1 -2 -2 -2 -3 -4
5 4 5 6 6 5 6 6 5 4 4 4 5 5 6 4 6 5 8 6 6 7 8 7 6 6 5 5 5 4 3 2 1 1 -0 -1 -1 -2 -2 -3 -3 -3 -4 -5
3 4 5 5 3 3 3 3 4 3 3 4 5 5 6 5 6 5 6 8 7 5 4 5 4 4 4 3 2 1 1 0 0 -0 -1 -2 -3 -3 -4 -4 -4 -4 -5 -5
2 2 4 4 4 4 3 3 4 3 3 3 4 5 6 6 6 7 6 7 7 5 4 3 3 2 2 1 1 0 -0 -1 -1 -2 -3 -3 -3 -3 -4 -5 -5 -5 -5 -6
3 2 1 2 3 2 2 2 1 2 4 5 5 7 6 5 6 5 4 4 4 3 2 2 2 1 1 0 -0 -1 -1 -2 -2 -3 -3 -4 -4 -5 -5 -5 -6 -6 -6 -7

GFSNW_925_temp_063.txt.gz
Temp
6 6 5 5 5 6 6 5 6 7 7 7 10 11 13 14 15 16 16 16 16 17 17 17 18 19 20 18 19 20 19 18 18 21 20 19 20 20 20 19 19 16 17 20
6 6 5 5 5 5 5 5 6 6 8 8 10 11 13 15 15 16 16 16 16 17 18 18 18 18 19 17 19 19 18 18 19 20 20 19 20 19 18 17 16 18 18 21
6 6 5 5 5 5 5 5 6 7 7 11 11 11 13 13 15 15 15 15 16 17 17 17 17 18 19 17 19 15 19 17 19 20 21 19 19 19 18 19 17 19 18 21
6 6 5 5 5 5 5 5 6 8 8 8 10 12 13 13 14 15 15 14 15 16 17 18 18 18 18 18 15 17 19 19 18 18 19 19 20 20 18 19 20 20 21 19
6 5 5 5 5 5 5 5 6 7 10 9 9 11 12 13 14 14 14 15 15 16 16 17 18 18 18 18 16 17 16 19 17 18 17 18 19 19 18 18 19 19 18 18
6 6 5 5 5 5 5 5 5 8 10 9 9 10 12 13 14 14 15 15 14 15 16 17 17 18 17 18 19 16 16 16 16 18 16 17 16 17 18 18 18 19 19 20
6 6 5 5 5 5 6 6 6 7 9 10 10 10 12 13 14 13 14 14 14 16 15 16 16 15 16 15 15 16 15 15 14 15 13 16 20 17 18 19 19 18 17 17
6 6 5 5 5 5 5 5 6 7 8 11 11 11 11 13 14 13 14 15 15 15 15 14 16 13 15 15 14 14 15 13 13 15 16 17 18 17 18 18 21 18 18 17
6 5 5 5 5 5 6 5 6 6 8 10 12 11 11 12 12 12 13 14 14 14 12 12 14 14 15 16 15 13 13 13 15 12 16 17 18 18 16 18 19 18 17 15
6 5 5 5 5 5 6 5 6 5 7 8 11 12 12 13 11 11 11 14 13 14 9 11 13 14 15 15 14 13 13 12 14 12 15 16 16 16 16 18 20 16 16 15
5 5 4 4 5 5 5 4 6 5 7 7 9 10 11 13 12 11 10 13 12 10 11 11 12 11 15 15 15 14 15 14 13 11 13 17 15 16 18 18 14 15 14 13
5 4 4 4 5 4 5 4 4 5 5 7 7 8 10 15 14 13 12 13 12 12 12 10 10 11 9 14 16 13 15 16 15 16 17 16 15 17 15 14 16 13 14 13
4 4 4 4 5 5 5 4 3 3 5 7 7 9 10 12 13 15 12 10 12 11 11 11 11 12 11 12 13 14 13 13 15 15 16 15 14 13 12 13 13 13 12 11
4 4 4 4 4 4 5 5 4 4 5 6 8 9 10 11 13 14 15 13 11 10 10 9 8 11 12 11 15 14 14 14 14 14 14 13 13 12 12 11 9 9 10 10
4 4 4 4 3 4 5 5 4 5 5 7 7 8 10 11 12 12 13 12 11 10 10 8 11 10 11 9 11 11 13 14 14 15 16 17 18 14 10 9 9 9 8 7
4 4 3 3 3 4 4 3 4 4 3 5 7 7 8 10 10 10 10 11 11 11 11 9 10 10 11 11 13 14 13 13 12 15 12 9 8 7 8 8 7 7 7 6
4 4 4 3 4 4 4 5 5 3 4 5 6 7 8 9 10 10 10 10 10 11 11 9 11 10 11 8 13 14 10 9 9 8 9 9 8 8 6 6 5 4 4 4
4 4 4 4 4 5 4 5 6 6 6 6 6 7 9 9 9 10 9 9 10 9 9 8 9 9 8 11 11 9 8 8 7 6 7 7 5 5 4 4 4 3 3 3
3 3 3 3 4 5 5 5 5 7 7 5 5 8 9 8 7 7 8 8 8 8 7 8 10 9 11 12 10 9 8 9 5 5 5 5 4 4 4 4 3 3 2 2
3 3 4 2 4 5 5 5 6 6 6 5 6 6 8 8 6 7 7 6 7 9 9 8 9 10 9 9 9 9 7 5 5 5 4 3 3 3 3 3 3 2 2 1
2 4 4 4 6 6 6 4 5 5 6 6 6 7 8 7 8 7 6 7 6 9 9 10 9 10 9 7 7 7 6 6 5 6 6 6 5 3 2 2 1 0 -0 -1
5 6 5 5 5 5 6 6 5 7 8 6 6 7 7 6 7 7 6 7 6 9 7 9 10 7 6 6 5 5 5 5 5 4 3 3 2 2 1 1 -0 -1 -3 -4
6 6 5 6 4 6 7 7 7 7 5 5 6 6 6 5 5 5 6 7 8 5 8 9 7 6 5 5 5 5 5 4 3 3 2 1 0 -0 -1 -2 -3 -3 -4 -4
4 4 6 6 6 6 6 6 7 4 4 5 5 5 6 4 6 5 8 7 6 8 9 7 6 5 5 4 4 3 2 1 1 0 -0 -1 -1 -2 -3 -3 -3 -4 -4 -5
3 4 5 5 4 3 3 3 4 3 3 4 5 5 6 5 6 6 7 7 7 6 6 5 4 3 3 2 2 1 0 -0 -1 -2 -2 -3 -3 -3 -4 -5 -5 -4 -5 -5
2 2 3 3 3 3 3 3 3 2 3 3 4 5 6 6 6 7 6 7 6 5 4 3 2 2 1 1 0 -0 -1 -1 -2 -2 -3 -3 -4 -4 -5 -6 -6 -6 -5 -6
2 1 -0 0 1 1 1 1 1 1 3 5 5 6 5 5 5 4 4 4 3 3 2 1 1 1 0 -0 -1 -1 -1 -2 -3 -3 -4 -5 -6 -5 -5 -5 -6 -7 -7 -7

GFSNW_925_temp_069.txt.gz
Temp
5 5 5 5 6 6 5 6 7 9 8 7 8 9 13 16 18 21 22 21 22 23 23 22 22 21 26 26 27 26 27 26 25 25 27 28 28 26 26 25 25 25 25 25
5 5 5 5 6 6 6 6 7 9 9 8 8 12 13 15 17 19 21 20 21 22 21 21 23 22 24 26 26 26 26 25 23 25 26 26 26 27 27 27 26 25 22 24
5 5 5 5 6 6 5 5 6 7 8 13 12 13 13 14 16 17 20 21 22 21 21 22 21 22 23 23 25 21 24 25 24 24 25 26 25 26 27 26 24 24 25 26
6 6 5 5 6 6 5 5 8 10 7 8 12 14 15 15 15 17 18 19 21 21 20 21 21 21 22 21 21 23 25 24 25 26 27 27 27 26 26 26 26 25 26 26
6 6 5 6 6 6 5 5 11 11 13 10 12 13 14 15 16 17 17 18 20 21 21 21 20 20 21 22 23 23 25 23 24 24 26 26 26 27 27 27 27 27 27 27
6 6 6 5 6 6 5 5 11 13 11 11 11 13 14 15 17 18 19 19 19 20 21 20 19 19 19 20 22 22 24 23 24 22 25 25 23 25 26 26 27 27 25 27
6 6 6 6 6 6 6 7 12 11 11 11 13 13 14 15 16 17 19 20 19 21 21 19 18 18 17 19 21 22 23 23 23 21 18 20 24 26 27 26 27 27 27 27
5 5 6 6 6 6 5 8 11 12 10 14 13 14 14 15 16 16 18 19 20 22 19 17 17 14 14 18 20 22 22 22 21 20 21 23 25 24 24 25 26 27 27 28
5 5 5 6 5 6 5 8 10 12 12 13 15 14 15 15 15 16 17 20 20 19 19 16 16 14 15 17 20 20 22 21 21 20 20 19 24 26 25 27 24 27 28 27
5 5 5 5 6 5 5 7 9 12 12 14 15 14 14 16 16 16 17 18 16 19 16 14 17 17 19 16 15 16 17 17 18 19 20 23 26 26 26 22 23 27 28 27
5 5 5 5 5 5 5 6 8 11 12 13 14 15 15 15 16 15 17 16 15 16 15 16 18 17 17 18 19 18 18 18 17 19 19 19 24 22 23 24 26 27 27 27
5 5 5 5 6 5 5 6 8 10 11 12 12 14 12 16 17 18 17 16 17 18 17 18 18 17 15 18 18 21 15 20 19 21 21 24 23 25 24 25 24 26 25 26
5 5 5 5 5 5 5 7 8 9 9 10 11 12 12 12 13 14 17 17 20 19 20 19 18 16 18 15 18 20 21 22 20 21 23 24 23 23 24 24 23 25 24 25
5 5 6 5 5 4 6 7 8 10 10 9 12 13 12 11 12 12 13 16 19 20 19 17 15 16 20 18 20 20 22 22 21 21 22 23 23 21 23 23 23 22 22 22
5 6 5 5 4 5 7 8 8 9 12 11 11 12 12 12 10 12 12 14 19 18 17 15 15 19 20 19 19 19 22 21 19 20 22 22 22 20 19 22 23 21 20 20
6 5 5 4 4 6 6 5 7 9 9 10 9 11 11 12 12 11 11 13 18 17 17 16 18 20 19 17 18 21 22 22 22 21 19 19 18 16 17 18 20 21 20 20
5 5 4 4 6 7 7 8 8 7 9 10 9 10 10 11 12 12 13 13 16 17 16 15 17 19 18 16 17 21 22 22 21 18 16 18 18 18 15 15 16 15 17 18
3 3 4 5 5 6 7 6 6 8 10 9 8 8 7 10 7 10 13 13 14 15 15 16 16 16 16 16 19 20 21 21 18 17 16 16 15 15 14 14 14 14 14 15
3 4 4 5 6 6 6 5 7 8 10 9 6 8 8 8 11 10 11 13 13 14 14 14 17 16 15 18 19 20 20 20 19 16 15 15 15 14 13 13 13 13 12 12
4 6 7 6 6 5 4 4 6 8 9 8 6 7 7 6 8 9 10 12 11 11 12 16 15 16 18 19 18 18 18 17 15 15 14 13 13 13 12 12 12 11 11 10
7 7 5 4 4 6 5 6 7 8 7 9 9 7 6 6 8 9 9 10 11 12 11 12 12 15 14 13 14 15 15 15 14 14 14 13 13 11 10 9 8 8 6 4
6 7 6 6 6 4 6 7 7 7 9 10 8 6 4 6 10 11 10 10 10 12 9 9 11 7 7 8 10 11 11 11 10 9 8 8 7 5 4 1 -0 -1 -2 -2
6 9 6 6 5 6 7 8 9 8 9 9 7 6 7 9 10 9 9 11 10 9 9 10 8 6 5 5 4 4 5 5 4 2 1 0 -1 -1 -1 -1 -2 -2 -3 -3
8 6 6 7 7 8 7 9 9 6 8 9 9 8 9 9 9 8 9 8 10 11 11 10 6 4 3 2 2 1 0 -0 -0 -1 -1 -1 -1 -1 -2 -2 -2 -2 -2 -3
5 6 6 5 4 4 4 4 5 4 8 10 9 9 9 7 9 8 9 9 10 9 8 6 4 3 2 1 0 -0 -1 -1 -0 -0 -0 -1 -1 -1 -2 -2 -3 -3 -4 -4
5 3 4 3 4 3 2 3 4 2 4 9 7 8 8 8 8 9 8 10 8 6 4 3 2 1 1 0 -0 -0 -1 -1 -1 -1 -1 -2 -2 -2 -3 -4 -4 -5 -5 -5
4 3 1 2 2 1 0 1 1 1 5 6 7 8 6 8 8 7 5 5 4 4 2 2 1 1 0 -0 -0 -0 -1 -1 -1 -2 -2 -2 -2 -2 -2 -3 -4 -5 -6 -7

GFSNW_925_temp_075.txt.gz
Temp
5 5 5 5 5 5 5 6 6 6 7 7 6 7 9 11 12 14 14 14 15 15 16 16 15 18 20 22 23 23 22 21 20 22 24 26 25 23 22 19 21 20 17 18
4 5 5 5 5 5 5 5 6 6 7 7 7 9 9 10 10 12 13 14 16 16 16 15 15 18 20 22 22 21 21 19 17 20 23 25 24 24 24 23 21 20 16 19
4 4 5 5 5 5 5 4 5 6 7 8 9 7 9 9 11 11 13 14 15 14 15 16 13 13 19 19 21 18 20 19 18 18 21 23 23 24 24 22 18 20 19 22
4 4 5 5 5 5 5 4 5 7 7 7 7 9 10 10 10 12 13 12 12 14 14 14 13 15 15 18 18 19 19 18 19 21 24 25 24 23 23 23 23 21 22 22
4 4 5 5 5 5 6 4 6 8 9 8 7 8 9 10 11 12 12 12 13 14 14 15 13 14 14 14 19 19 19 18 20 19 22 24 23 23 23 23 24 24 23 23
4 5 5 5 5 5 6 5 7 8 8 8 7 8 9 10 12 13 13 14 13 13 14 15 14 13 12 13 14 18 19 18 18 18 20 21 18 21 24 24 24 23 22 22
5 5 5 5 5 5 6 6 7 7 7 9 8 10 10 10 12 12 14 15 14 15 16 14 13 13 13 13 12 16 17 17 16 15 16 18 21 24 24 23 24 24 25 24
5 5 5 5 5 5 6 6 7 7 7 9 10 9 10 10 11 12 13 15 15 15 14 13 12 11 11 13 14 16 17 17 14 16 17 19 21 23 23 23 21 24 25 24
4 5 5 5 6 5 6 6 6 8 8 9 11 11 11 10 10 11 12 14 14 15 13 12 11 11 12 14 16 17 17 16 14 14 15 16 19 21 24 24 19 24 25 23
4 4 5 5 5 5 6 6 6 8 8 10 12 11 11 12 11 11 12 13 12 14 9 11 10 12 14 12 14 15 12 12 13 12 13 15 21 23 23 20 17 23 24 23
5 5 5 5 5 5 5 6 5 6 7 8 11 12 11 11 12 11 12 12 11 11 9 10 10 9 13 14 16 15 14 13 13 13 14 14 20 22 21 18 19 23 23 23
5 5 5 5 5 5 5 5 5 6 7 8 10 11 13 12 12 12 12 13 12 11 10 10 10 10 9 12 12 16 15 14 15 15 14 17 18 21 21 20 20 22 22 21
5 5 5 5 5 5 5 4 5 6 6 6 8 8 13 13 13 13 10 10 13 13 12 10 11 11 12 9 11 14 15 13 12 13 15 15 16 17 17 19 22 21 20 21
5 5 5 5 5 5 5 4 4 6 4 5 7 10 11 12 13 13 13 12 12 12 12 10 11 9 14 11 14 13 15 14 14 14 16 17 17 19 17 17 17 20 20 21
5 5 5 5 5 5 4 4 5 6 7 7 8 10 12 13 13 13 13 11 11 9 10 7 9 11 12 11 13 13 16 16 14 14 17 17 17 17 18 18 17 17 19 20
5 5 4 5 5 4 5 5 5 7 9 8 7 10 11 12 13 12 12 11 10 9 8 8 10 9 10 10 12 16 17 18 18 18 19 16 15 15 16 16 15 15 16 17
4 5 5 5 5 5 5 5 6 7 7 8 6 7 10 12 11 9 9 10 9 8 8 8 10 11 9 10 10 16 17 18 18 18 15 16 16 14 14 13 14 14 14 13
5 5 5 5 4 6 6 6 7 6 8 8 5 5 7 6 7 7 8 8 8 8 8 8 9 10 10 9 14 16 17 17 16 15 15 14 13 13 12 13 12 11 11 10
5 5 5 5 5 5 5 6 7 7 8 5 4 5 5 5 6 7 7 7 7 7 6 9 10 9 9 13 14 16 16 17 16 14 14 13 12 12 12 11 11 10 7 2
5 5 4 3 5 7 7 7 6 6 7 7 4 5 5 5 5 5 7 6 7 7 7 9 8 9 10 9 11 12 13 12 13 12 12 11 11 9 7 5 4 3 2 1
6 4 4 4 6 7 7 5 6 7 6 6 6 6 6 5 6 5 6 7 6 7 9 9 8 10 9 7 7 9 8 7 7 6 9 10 7 5 2 1 0 -1 -2 -3
7 5 5 5 6 5 6 5 5 6 6 6 6 6 4 4 5 4 6 7 7 9 9 8 9 6 5 4 3 5 5 4 3 3 2 1 1 0 -1 -1 -2 -3 -3 -3
6 7 5 6 3 6 5 4 5 5 4 5 5 4 4 4 5 5 6 7 8 7 9 8 6 4 3 3 2 1 1 1 0 0 -0 -1 -1 -2 -2 -3 -3 -4 -4 -5
5 5 5 5 4 4 3 5 6 4 5 4 5 5 5 4 4 5 8 7 7 9 9 6 4 2 1 1 1 0 -0 -1 -1 -1 -1 -2 -2 -2 -3 -3 -4 -4 -5 -5
3 3 4 3 2 1 1 1 3 1 2 4 5 5 6 5 6 6 6 8 7 5 5 3 2 1 0 0 -0 -1 -1 -1 -2 -2 -2 -3 -3 -4 -4 -5 -5 -5 -6 -6
1 0 2 1 1 -0 -1 -1 0 0 0 2 5 7 7 7 6 6 5 6 4 3 2 1 0 -0 -0 -1 -1 -2 -2 -2 -3 -3 -4 -4 -4 -4 -5 -5 -6 -6 -6 -6
2 -0 -1 -1 -1 -1 -1 -1 -1 -1 1 5 5 5 5 6 5 4 3 2 2 1 0 0 -0 -1 -1 -1 -2 -2 -3 -3 -4 -4 -4 -5 -5 -5 -5 -5 -6 -6 -7 -7